Time,TemperatureF,DewpointF,PressureIn,WindDirection,WindDirectionDegrees,WindSpeedMPH,WindSpeedGustMPH,Humidity,HourlyPrecipIn,Conditions,Clouds,dailyrainin,SoftwareType,DateUTC
2013-04-29 00:05:00,47.9,35.5,30.22,East,90,0.0,0.0,62,0.00,,,0.00,Wunderground v.1.15,2013-04-29 04:05:00,
2013-04-29 00:10:00,47.8,35.4,30.23,East,90,0.0,0.0,62,0.00,,,0.00,Wunderground v.1.15,2013-04-29 04:10:00,
2013-04-29 00:15:00,47.6,35.2,30.22,East,90,0.0,0.0,62,0.00,,,0.00,Wunderground v.1.15,2013-04-29 04:15:00,
2013-04-29 00:20:00,47.6,35.2,30.23,East,90,0.0,0.0,62,0.00,,,0.00,Wunderground v.1.15,2013-04-29 04:20:00,
2013-04-29 00:25:00,47.5,35.5,30.23,East,90,0.0,0.0,63,0.00,,,0.00,Wunderground v.1.15,2013-04-29 04:25:00,
2013-04-29 00:30:00,47.4,35.4,30.23,East,90,0.0,0.0,63,0.00,,,0.00,Wunderground v.1.15,2013-04-29 04:30:00,
2013-04-29 00:35:00,47.4,35.4,30.23,East,90,0.0,0.0,63,0.00,,,0.00,Wunderground v.1.15,2013-04-29 04:35:00,
2013-04-29 00:40:00,47.4,35.4,30.23,East,90,0.0,0.0,63,0.00,,,0.00,Wunderground v.1.15,2013-04-29 04:40:00,
2013-04-29 00:50:00,47.4,35.4,30.23,East,90,0.0,0.0,63,0.00,,,0.00,Wunderground v.1.15,2013-04-29 04:50:00,
2013-04-29 00:55:00,47.3,35.3,30.23,East,90,0.0,0.0,63,0.00,,,0.00,Wunderground v.1.15,2013-04-29 04:55:00,
2013-04-29 01:00:00,47.2,35.2,30.22,East,90,0.0,0.0,63,0.00,,,0.00,Wunderground v.1.15,2013-04-29 05:00:00,
2013-04-29 01:05:00,47.1,35.1,30.23,East,90,0.0,0.0,63,0.00,,,0.00,Wunderground v.1.15,2013-04-29 05:05:00,
2013-04-29 01:15:00,47.2,35.2,30.22,East,90,0.0,0.0,63,0.00,,,0.00,Wunderground v.1.15,2013-04-29 05:15:00,
2013-04-29 01:20:00,47.2,35.2,30.22,East,90,0.0,0.0,63,0.00,,,0.00,Wunderground v.1.15,2013-04-29 05:20:00,
2013-04-29 01:30:00,46.7,35.2,30.22,East,90,0.0,0.0,64,0.00,,,0.00,Wunderground v.1.15,2013-04-29 05:30:00,
2013-04-29 01:35:00,46.5,35.4,30.22,East,90,0.0,0.0,65,0.00,,,0.00,Wunderground v.1.15,2013-04-29 05:35:00,
2013-04-29 01:40:00,46.4,35.3,30.22,East,90,0.0,0.0,65,0.00,,,0.00,Wunderground v.1.15,2013-04-29 05:40:00,
2013-04-29 01:45:00,46.3,35.2,30.22,East,90,0.0,0.0,65,0.00,,,0.00,Wunderground v.1.15,2013-04-29 05:45:00,
2013-04-29 01:55:00,46.3,35.2,30.22,East,90,0.0,0.0,65,0.00,,,0.00,Wunderground v.1.15,2013-04-29 05:55:00,
2013-04-29 02:05:00,46.3,35.2,30.22,East,90,0.0,0.0,65,0.00,,,0.00,Wunderground v.1.15,2013-04-29 06:05:00,
2013-04-29 02:10:00,46.2,35.1,30.21,East,90,0.0,0.0,65,0.00,,,0.00,Wunderground v.1.15,2013-04-29 06:10:00,
2013-04-29 02:15:00,46.2,35.1,30.21,East,90,0.0,0.0,65,0.00,,,0.00,Wunderground v.1.15,2013-04-29 06:15:00,
2013-04-29 02:25:00,46.1,35.0,30.21,East,90,0.0,0.0,65,0.00,,,0.00,Wunderground v.1.15,2013-04-29 06:25:00,
2013-04-29 02:30:00,46.1,35.0,30.21,East,90,0.0,0.0,65,0.00,,,0.00,Wunderground v.1.15,2013-04-29 06:30:00,
2013-04-29 02:35:00,46.0,34.9,30.21,East,90,0.0,0.0,65,0.00,,,0.00,Wunderground v.1.15,2013-04-29 06:35:00,
2013-04-29 02:45:00,45.9,34.4,30.20,East,90,0.0,0.0,64,0.00,,,0.00,Wunderground v.1.15,2013-04-29 06:45:00,
2013-04-29 02:55:00,45.8,34.3,30.20,East,90,0.0,0.0,64,0.00,,,0.00,Wunderground v.1.15,2013-04-29 06:55:00,
2013-04-29 03:00:00,45.7,34.2,30.20,East,90,0.0,0.0,64,0.00,,,0.00,Wunderground v.1.15,2013-04-29 07:00:00,
2013-04-29 03:05:00,45.7,34.2,30.20,East,90,0.0,0.0,64,0.00,,,0.00,Wunderground v.1.15,2013-04-29 07:05:00,
2013-04-29 03:15:00,45.6,34.1,30.20,East,90,0.0,0.0,64,0.00,,,0.00,Wunderground v.1.15,2013-04-29 07:15:00,
2013-04-29 03:20:00,45.6,34.1,30.20,East,90,0.0,0.0,64,0.00,,,0.00,Wunderground v.1.15,2013-04-29 07:20:00,
2013-04-29 03:25:00,45.5,34.0,30.20,East,90,0.0,0.0,64,0.00,,,0.00,Wunderground v.1.15,2013-04-29 07:25:00,
2013-04-29 03:35:00,45.4,33.9,30.20,East,90,0.0,0.0,64,0.00,,,0.00,Wunderground v.1.15,2013-04-29 07:35:00,
2013-04-29 03:45:00,45.4,33.5,30.20,East,90,0.0,0.0,63,0.00,,,0.00,Wunderground v.1.15,2013-04-29 07:45:00,
2013-04-29 03:50:00,45.4,33.5,30.20,East,90,0.0,0.0,63,0.00,,,0.00,Wunderground v.1.15,2013-04-29 07:50:00,
2013-04-29 04:00:00,45.4,33.5,30.20,East,90,0.0,0.0,63,0.00,,,0.00,Wunderground v.1.15,2013-04-29 08:00:00,
2013-04-29 04:05:00,45.4,33.5,30.21,East,90,0.0,0.0,63,0.00,,,0.00,Wunderground v.1.15,2013-04-29 08:05:00,
2013-04-29 04:10:00,45.2,33.3,30.21,East,90,0.0,0.0,63,0.00,,,0.00,Wunderground v.1.15,2013-04-29 08:10:00,
2013-04-29 04:15:00,45.1,33.2,30.21,East,90,0.0,0.0,63,0.00,,,0.00,Wunderground v.1.15,2013-04-29 08:15:00,
2013-04-29 04:25:00,44.8,33.4,30.21,East,90,0.0,0.0,64,0.00,,,0.00,Wunderground v.1.15,2013-04-29 08:25:00,
2013-04-29 04:35:00,44.5,33.5,30.21,East,90,0.0,0.0,65,0.00,,,0.00,Wunderground v.1.15,2013-04-29 08:35:00,
2013-04-29 04:45:00,44.3,33.3,30.21,East,90,0.0,0.0,65,0.00,,,0.00,Wunderground v.1.15,2013-04-29 08:45:00,
2013-04-29 04:55:00,44.1,33.1,30.21,East,90,0.0,0.0,65,0.00,,,0.00,Wunderground v.1.15,2013-04-29 08:55:00,
2013-04-29 05:00:00,44.0,33.0,30.21,East,90,0.0,0.0,65,0.00,,,0.00,Wunderground v.1.15,2013-04-29 09:00:00,
2013-04-29 05:05:00,43.9,32.9,30.21,East,90,0.0,0.0,65,0.00,,,0.00,Wunderground v.1.15,2013-04-29 09:05:00,
2013-04-29 05:15:00,43.8,32.8,30.21,East,90,0.0,0.0,65,0.00,,,0.00,Wunderground v.1.15,2013-04-29 09:15:00,
2013-04-29 05:20:00,43.8,32.8,30.21,East,90,0.0,0.0,65,0.00,,,0.00,Wunderground v.1.15,2013-04-29 09:20:00,
2013-04-29 05:25:00,43.8,33.2,30.21,East,90,0.0,0.0,66,0.00,,,0.00,Wunderground v.1.15,2013-04-29 09:25:00,
2013-04-29 05:35:00,43.8,32.8,30.21,East,90,0.0,0.0,65,0.00,,,0.00,Wunderground v.1.15,2013-04-29 09:35:00,
2013-04-29 05:45:00,43.9,32.9,30.21,East,90,0.0,0.0,65,0.00,,,0.00,Wunderground v.1.15,2013-04-29 09:45:00,
2013-04-29 05:55:00,43.9,32.9,30.21,East,90,0.0,0.0,65,0.00,,,0.00,Wunderground v.1.15,2013-04-29 09:55:00,
2013-04-29 06:05:00,43.9,32.5,30.22,East,90,0.0,0.0,64,0.00,,,0.00,Wunderground v.1.15,2013-04-29 10:05:00,
2013-04-29 06:15:00,44.0,32.2,30.22,East,90,0.0,0.0,63,0.00,,,0.00,Wunderground v.1.15,2013-04-29 10:15:00,
2013-04-29 06:20:00,44.1,31.9,30.22,East,90,0.0,0.0,62,0.00,,,0.00,Wunderground v.1.15,2013-04-29 10:20:00,
2013-04-29 06:25:00,44.4,32.2,30.22,East,90,0.0,0.0,62,0.00,,,0.00,Wunderground v.1.15,2013-04-29 10:25:00,
2013-04-29 06:35:00,44.8,32.2,30.22,East,90,0.0,0.0,61,0.00,,,0.00,Wunderground v.1.15,2013-04-29 10:35:00,
2013-04-29 06:40:00,44.9,32.3,30.22,East,90,0.0,0.0,61,0.00,,,0.00,Wunderground v.1.15,2013-04-29 10:40:00,
2013-04-29 06:45:00,44.9,32.3,30.22,East,90,0.0,0.0,61,0.00,,,0.00,Wunderground v.1.15,2013-04-29 10:45:00,
2013-04-29 06:55:00,44.9,32.3,30.23,East,90,0.0,0.0,61,0.00,,,0.00,Wunderground v.1.15,2013-04-29 10:55:00,
2013-04-29 07:05:00,45.0,33.5,30.22,East,90,0.0,0.0,64,0.00,,,0.00,Wunderground v.1.15,2013-04-29 11:05:00,
2013-04-29 07:10:00,45.0,33.2,30.23,East,90,0.0,0.0,63,0.00,,,0.00,Wunderground v.1.15,2013-04-29 11:10:00,
2013-04-29 07:15:00,45.1,33.6,30.23,East,90,0.0,0.0,64,0.00,,,0.00,Wunderground v.1.15,2013-04-29 11:15:00,
2013-04-29 07:25:00,45.6,33.3,30.23,East,90,0.0,0.0,62,0.00,,,0.00,Wunderground v.1.15,2013-04-29 11:25:00,
2013-04-29 07:30:00,45.9,34.4,30.23,East,90,0.0,0.0,64,0.00,,,0.00,Wunderground v.1.15,2013-04-29 11:30:00,
2013-04-29 07:35:00,46.2,33.1,30.23,East,90,0.0,0.0,60,0.00,,,0.00,Wunderground v.1.15,2013-04-29 11:35:00,
2013-04-29 07:45:00,46.2,33.1,30.23,East,90,0.0,0.0,60,0.00,,,0.00,Wunderground v.1.15,2013-04-29 11:45:00,
2013-04-29 07:50:00,46.2,32.7,30.23,East,90,0.0,0.0,59,0.00,,,0.00,Wunderground v.1.15,2013-04-29 11:50:00,
2013-04-29 07:55:00,46.3,31.9,30.23,East,90,0.0,0.0,57,0.00,,,0.00,Wunderground v.1.15,2013-04-29 11:55:00,
2013-04-29 08:05:00,46.8,34.0,30.23,East,90,0.0,0.0,61,0.00,,,0.00,Wunderground v.1.15,2013-04-29 12:05:00,
2013-04-29 08:15:00,47.1,33.1,30.23,ESE,109,0.0,0.0,58,0.00,,,0.00,Wunderground v.1.15,2013-04-29 12:15:00,
2013-04-29 08:20:00,47.3,33.7,30.23,ESE,109,0.0,0.0,59,0.00,,,0.00,Wunderground v.1.15,2013-04-29 12:20:00,
2013-04-29 08:30:00,49.2,34.2,30.23,ESE,109,0.0,0.0,56,0.00,,,0.00,Wunderground v.1.15,2013-04-29 12:30:00,
2013-04-29 08:35:00,50.2,36.4,30.23,ESE,109,0.0,0.0,59,0.00,,,0.00,Wunderground v.1.15,2013-04-29 12:35:00,
2013-04-29 08:40:00,51.0,37.6,30.23,ESE,109,0.0,0.0,60,0.00,,,0.00,Wunderground v.1.15,2013-04-29 12:40:00,
2013-04-29 08:45:00,51.5,37.2,30.23,ESE,115,0.0,0.0,58,0.00,,,0.00,Wunderground v.1.15,2013-04-29 12:45:00,
2013-04-29 08:55:00,50.8,35.2,30.23,SW,229,0.0,0.0,55,0.00,,,0.00,Wunderground v.1.15,2013-04-29 12:55:00,
2013-04-29 09:05:00,51.2,36.5,30.23,SW,220,0.0,0.0,57,0.00,,,0.00,Wunderground v.1.15,2013-04-29 13:05:00,
2013-04-29 09:15:00,51.5,35.9,30.23,SW,220,0.0,0.0,55,0.00,,,0.00,Wunderground v.1.15,2013-04-29 13:15:00,
2013-04-29 09:25:00,52.6,38.7,30.23,SW,218,0.0,0.0,59,0.00,,,0.00,Wunderground v.1.15,2013-04-29 13:25:00,
2013-04-29 09:30:00,52.8,36.6,30.23,SW,219,0.0,0.0,54,0.00,,,0.00,Wunderground v.1.15,2013-04-29 13:30:00,
2013-04-29 09:35:00,53.0,36.3,30.23,SW,218,0.0,0.0,53,0.00,,,0.00,Wunderground v.1.15,2013-04-29 13:35:00,
2013-04-29 09:45:00,53.8,37.1,30.22,SW,217,0.0,0.0,53,0.00,,,0.00,Wunderground v.1.15,2013-04-29 13:45:00,
2013-04-29 09:50:00,54.3,37.0,30.22,SW,217,0.0,0.0,52,0.00,,,0.00,Wunderground v.1.15,2013-04-29 13:50:00,
2013-04-29 09:55:00,54.6,37.3,30.22,SW,217,0.0,0.0,52,0.00,,,0.00,Wunderground v.1.15,2013-04-29 13:55:00,
2013-04-29 10:05:00,56.1,40.1,30.22,SSW,199,0.0,4.0,55,0.00,,,0.00,Wunderground v.1.15,2013-04-29 14:05:00,
2013-04-29 10:15:00,56.4,38.0,30.21,SSW,202,0.0,0.0,50,0.00,,,0.00,Wunderground v.1.15,2013-04-29 14:15:00,
2013-04-29 10:20:00,56.8,38.3,30.22,SSW,202,0.0,0.0,50,0.00,,,0.00,Wunderground v.1.15,2013-04-29 14:20:00,
2013-04-29 10:25:00,57.1,40.6,30.22,SSW,205,0.0,1.0,54,0.00,,,0.00,Wunderground v.1.15,2013-04-29 14:25:00,
2013-04-29 10:35:00,57.1,38.1,30.22,SSW,206,0.0,0.0,49,0.00,,,0.00,Wunderground v.1.15,2013-04-29 14:35:00,
2013-04-29 10:45:00,57.5,39.5,30.21,SSW,202,0.0,0.0,51,0.00,,,0.00,Wunderground v.1.15,2013-04-29 14:45:00,
2013-04-29 10:50:00,58.0,38.4,30.22,SSW,202,0.0,0.0,48,0.00,,,0.00,Wunderground v.1.15,2013-04-29 14:50:00,
2013-04-29 11:00:00,59.0,38.8,30.21,SE,144,0.0,0.0,47,0.00,,,0.00,Wunderground v.1.15,2013-04-29 15:00:00,
2013-04-29 11:05:00,59.5,40.8,30.21,SE,145,0.0,0.0,50,0.00,,,0.00,Wunderground v.1.15,2013-04-29 15:05:00,
2013-04-29 11:10:00,59.9,40.1,30.21,ENE,61,0.0,0.0,48,0.00,,,0.00,Wunderground v.1.15,2013-04-29 15:10:00,
2013-04-29 11:15:00,60.4,41.1,30.21,WSW,255,0.0,1.0,49,0.00,,,0.00,Wunderground v.1.15,2013-04-29 15:15:00,
2013-04-29 11:25:00,61.0,40.1,30.21,SE,128,0.0,2.0,46,0.00,,,0.00,Wunderground v.1.15,2013-04-29 15:25:00,
2013-04-29 11:35:00,61.6,43.3,30.21,South,178,2.0,5.0,51,0.00,,,0.00,Wunderground v.1.15,2013-04-29 15:35:00,
2013-04-29 11:40:00,61.8,45.5,30.20,SSW,207,2.0,2.0,55,0.00,,,0.00,Wunderground v.1.15,2013-04-29 15:40:00,
2013-04-29 11:45:00,63.0,41.3,30.20,SSE,155,0.0,2.0,45,0.00,,,0.00,Wunderground v.1.15,2013-04-29 15:45:00,
2013-04-29 11:55:00,63.0,40.7,30.19,WSW,256,2.0,2.0,44,0.00,,,0.00,Wunderground v.1.15,2013-04-29 15:55:00,
2013-04-29 12:00:00,63.1,43.1,30.19,West,265,2.0,2.0,48,0.00,,,0.00,Wunderground v.1.15,2013-04-29 16:00:00,
2013-04-29 12:05:00,63.7,41.9,30.19,West,259,1.0,2.0,45,0.00,,,0.00,Wunderground v.1.15,2013-04-29 16:05:00,
2013-04-29 12:15:00,64.6,43.3,30.19,South,180,1.0,4.0,46,0.00,,,0.00,Wunderground v.1.15,2013-04-29 16:15:00,
2013-04-29 12:25:00,64.5,42.1,30.19,SE,144,1.0,1.0,44,0.00,,,0.00,Wunderground v.1.15,2013-04-29 16:25:00,
2013-04-29 12:30:00,64.1,40.5,30.18,SE,132,1.0,1.0,42,0.00,,,0.00,Wunderground v.1.15,2013-04-29 16:30:00,
2013-04-29 12:35:00,64.7,41.1,30.18,South,191,1.0,1.0,42,0.00,,,0.00,Wunderground v.1.15,2013-04-29 16:35:00,
2013-04-29 12:45:00,64.7,43.4,30.18,SE,142,2.0,3.0,46,0.00,,,0.00,Wunderground v.1.15,2013-04-29 16:45:00,
2013-04-29 12:55:00,65.6,43.1,30.18,SW,214,2.0,5.0,44,0.00,,,0.00,Wunderground v.1.15,2013-04-29 16:55:00,
2013-04-29 13:05:00,64.7,41.7,30.17,SW,221,3.0,3.0,43,0.00,,,0.00,Wunderground v.1.15,2013-04-29 17:05:00,
2013-04-29 13:15:00,65.3,43.4,30.17,WSW,249,3.0,3.0,45,0.00,,,0.00,Wunderground v.1.15,2013-04-29 17:15:00,
2013-04-29 13:25:00,66.0,42.9,30.17,SW,234,2.0,3.0,43,0.00,,,0.00,Wunderground v.1.15,2013-04-29 17:25:00,
2013-04-29 13:30:00,65.8,43.3,30.17,WSW,250,2.0,2.0,44,0.00,,,0.00,Wunderground v.1.15,2013-04-29 17:30:00,
2013-04-29 13:35:00,65.9,45.6,30.17,ESE,115,2.0,2.0,48,0.00,,,0.00,Wunderground v.1.15,2013-04-29 17:35:00,
2013-04-29 13:45:00,66.6,44.6,30.17,SSW,198,3.0,4.0,45,0.00,,,0.00,Wunderground v.1.15,2013-04-29 17:45:00,
2013-04-29 13:50:00,66.4,43.8,30.17,SSE,148,1.0,1.0,44,0.00,,,0.00,Wunderground v.1.15,2013-04-29 17:50:00,
2013-04-29 13:55:00,65.8,44.4,30.16,South,176,1.0,1.0,46,0.00,,,0.00,Wunderground v.1.15,2013-04-29 17:55:00,
2013-04-29 14:05:00,65.9,43.4,30.16,SSW,195,1.0,4.0,44,0.00,,,0.00,Wunderground v.1.15,2013-04-29 18:05:00,
2013-04-29 14:10:00,65.6,44.3,30.16,SW,230,1.0,1.0,46,0.00,,,0.00,Wunderground v.1.15,2013-04-29 18:10:00,
2013-04-29 14:15:00,66.5,45.6,30.16,SE,146,3.0,7.0,47,0.00,,,0.00,Wunderground v.1.15,2013-04-29 18:15:00,
2013-04-29 14:25:00,66.8,44.8,30.16,SE,138,4.0,4.0,45,0.00,,,0.00,Wunderground v.1.15,2013-04-29 18:25:00,
2013-04-29 14:35:00,67.0,44.4,30.15,WSW,238,4.0,4.0,44,0.00,,,0.00,Wunderground v.1.15,2013-04-29 18:35:00,
2013-04-29 14:40:00,66.9,43.7,30.15,SW,234,2.0,3.0,43,0.00,,,0.00,Wunderground v.1.15,2013-04-29 18:40:00,
2013-04-29 14:50:00,66.9,42.4,30.15,SE,146,3.0,6.0,41,0.00,,,0.00,Wunderground v.1.15,2013-04-29 18:50:00,
2013-04-29 14:55:00,67.1,45.0,30.15,SSW,211,4.0,6.0,45,0.00,,,0.00,Wunderground v.1.15,2013-04-29 18:55:00,
2013-04-29 15:00:00,67.2,42.7,30.15,SSW,207,4.0,8.0,41,0.00,,,0.00,Wunderground v.1.15,2013-04-29 19:00:00,
2013-04-29 15:05:00,67.4,44.7,30.14,SW,228,4.0,8.0,44,0.00,,,0.00,Wunderground v.1.15,2013-04-29 19:05:00,
2013-04-29 15:15:00,66.6,42.2,30.15,SSE,155,5.0,13.0,41,0.00,,,0.00,Wunderground v.1.15,2013-04-29 19:15:00,
2013-04-29 15:25:00,67.9,42.0,30.14,South,169,2.0,4.0,39,0.00,,,0.00,Wunderground v.1.15,2013-04-29 19:25:00,
2013-04-29 15:30:00,66.9,41.1,30.14,South,190,3.0,3.0,39,0.00,,,0.00,Wunderground v.1.15,2013-04-29 19:30:00,
2013-04-29 15:35:00,66.1,41.7,30.14,SW,235,3.0,11.0,41,0.00,,,0.00,Wunderground v.1.15,2013-04-29 19:35:00,
2013-04-29 15:45:00,66.1,43.5,30.14,SE,144,2.0,5.0,44,0.00,,,0.00,Wunderground v.1.15,2013-04-29 19:45:00,
2013-04-29 15:55:00,66.1,41.7,30.14,SSE,159,4.0,4.0,41,0.00,,,0.00,Wunderground v.1.15,2013-04-29 19:55:00,
2013-04-29 16:00:00,66.2,44.8,30.14,South,173,3.0,3.0,46,0.00,,,0.00,Wunderground v.1.15,2013-04-29 20:00:00,
2013-04-29 16:10:00,65.2,42.7,30.14,SSE,153,2.0,2.0,44,0.00,,,0.00,Wunderground v.1.15,2013-04-29 20:10:00,
2013-04-29 16:15:00,64.9,42.5,30.14,SE,139,2.0,2.0,44,0.00,,,0.00,Wunderground v.1.15,2013-04-29 20:15:00,
2013-04-29 16:20:00,65.0,41.9,30.13,SSW,192,1.0,1.0,43,0.00,,,0.00,Wunderground v.1.15,2013-04-29 20:20:00,
2013-04-29 16:25:00,65.2,42.7,30.14,SSW,200,1.0,1.0,44,0.00,,,0.00,Wunderground v.1.15,2013-04-29 20:25:00,
2013-04-29 16:35:00,64.9,42.5,30.14,SSW,205,1.0,2.0,44,0.00,,,0.00,Wunderground v.1.15,2013-04-29 20:35:00,
2013-04-29 16:45:00,65.4,42.3,30.14,South,175,1.0,7.0,43,0.00,,,0.00,Wunderground v.1.15,2013-04-29 20:45:00,
2013-04-29 16:55:00,65.1,42.6,30.14,SSW,207,1.0,1.0,44,0.00,,,0.00,Wunderground v.1.15,2013-04-29 20:55:00,
2013-04-29 17:05:00,64.8,42.4,30.14,SW,225,3.0,6.0,44,0.00,,,0.00,Wunderground v.1.15,2013-04-29 21:05:00,
2013-04-29 17:10:00,64.8,41.2,30.14,SSW,204,2.0,2.0,42,0.00,,,0.00,Wunderground v.1.15,2013-04-29 21:10:00,
2013-04-29 17:15:00,64.9,41.2,30.14,SW,230,1.0,2.0,42,0.00,,,0.00,Wunderground v.1.15,2013-04-29 21:15:00,
2013-04-29 17:25:00,64.7,41.1,30.14,SSW,196,2.0,6.0,42,0.00,,,0.00,Wunderground v.1.15,2013-04-29 21:25:00,
2013-04-29 17:35:00,64.8,40.5,30.14,South,190,1.0,1.0,41,0.00,,,0.00,Wunderground v.1.15,2013-04-29 21:35:00,
2013-04-29 17:45:00,64.6,41.0,30.14,SSE,152,1.0,1.0,42,0.00,,,0.00,Wunderground v.1.15,2013-04-29 21:45:00,
2013-04-29 17:55:00,64.6,41.0,30.14,South,169,1.0,3.0,42,0.00,,,0.00,Wunderground v.1.15,2013-04-29 21:55:00,
2013-04-29 18:00:00,64.5,40.3,30.14,SSW,198,1.0,1.0,41,0.00,,,0.00,Wunderground v.1.15,2013-04-29 22:00:00,
2013-04-29 18:05:00,64.4,41.4,30.14,SSE,163,1.0,5.0,43,0.00,,,0.00,Wunderground v.1.15,2013-04-29 22:05:00,
2013-04-29 18:15:00,64.1,40.5,30.14,SE,133,1.0,4.0,42,0.00,,,0.00,Wunderground v.1.15,2013-04-29 22:15:00,
2013-04-29 18:20:00,63.9,41.0,30.14,SSE,155,0.0,3.0,43,0.00,,,0.00,Wunderground v.1.15,2013-04-29 22:20:00,
2013-04-29 18:25:00,63.8,41.5,30.15,SSE,160,0.0,3.0,44,0.00,,,0.00,Wunderground v.1.15,2013-04-29 22:25:00,
2013-04-29 18:35:00,63.8,40.3,30.15,SSE,161,1.0,1.0,42,0.00,,,0.00,Wunderground v.1.15,2013-04-29 22:35:00,
2013-04-29 18:45:00,63.6,40.1,30.15,SE,144,1.0,2.0,42,0.00,,,0.00,Wunderground v.1.15,2013-04-29 22:45:00,
2013-04-29 18:50:00,63.4,41.1,30.15,SSE,150,1.0,1.0,44,0.00,,,0.00,Wunderground v.1.15,2013-04-29 22:50:00,
2013-04-29 18:55:00,63.2,41.5,30.15,SE,140,0.0,1.0,45,0.00,,,0.00,Wunderground v.1.15,2013-04-29 22:55:00,
2013-04-29 19:05:00,62.9,42.4,30.15,ESE,104,1.0,4.0,47,0.00,,,0.00,Wunderground v.1.15,2013-04-29 23:05:00,
2013-04-29 19:10:00,62.6,40.9,30.16,SSW,192,2.0,2.0,45,0.00,,,0.00,Wunderground v.1.15,2013-04-29 23:10:00,
2013-04-29 19:15:00,62.3,40.7,30.16,WSW,242,2.0,2.0,45,0.00,,,0.00,Wunderground v.1.15,2013-04-29 23:15:00,
2013-04-29 19:25:00,61.6,41.2,30.16,WSW,257,1.0,1.0,47,0.00,,,0.00,Wunderground v.1.15,2013-04-29 23:25:00,
2013-04-29 19:35:00,60.9,41.6,30.17,WSW,244,1.0,2.0,49,0.00,,,0.00,Wunderground v.1.15,2013-04-29 23:35:00,
2013-04-29 19:40:00,60.5,41.2,30.17,WSW,256,1.0,1.0,49,0.00,,,0.00,Wunderground v.1.15,2013-04-29 23:40:00,
2013-04-29 19:45:00,60.2,41.5,30.17,SSW,211,1.0,1.0,50,0.00,,,0.00,Wunderground v.1.15,2013-04-29 23:45:00,
2013-04-29 19:55:00,59.4,40.2,30.17,West,264,0.0,1.0,49,0.00,,,0.00,Wunderground v.1.15,2013-04-29 23:55:00,
2013-04-29 20:05:00,59.0,40.4,30.18,SW,219,0.0,0.0,50,0.00,,,0.00,Wunderground v.1.15,2013-04-30 00:05:00,
2013-04-29 20:10:00,58.7,40.6,30.18,WSW,245,0.0,0.0,51,0.00,,,0.00,Wunderground v.1.15,2013-04-30 00:10:00,
2013-04-29 20:15:00,58.4,40.3,30.18,WSW,238,0.0,0.0,51,0.00,,,0.00,Wunderground v.1.15,2013-04-30 00:15:00,
2013-04-29 20:25:00,57.7,39.2,30.18,WSW,237,0.0,0.0,50,0.00,,,0.00,Wunderground v.1.15,2013-04-30 00:25:00,
2013-04-29 20:30:00,57.6,39.6,30.19,WSW,238,0.0,1.0,51,0.00,,,0.00,Wunderground v.1.15,2013-04-30 00:30:00,
2013-04-29 20:35:00,57.3,39.3,30.19,WSW,238,0.0,1.0,51,0.00,,,0.00,Wunderground v.1.15,2013-04-30 00:35:00,
2013-04-29 20:45:00,56.8,38.9,30.19,WSW,238,0.0,0.0,51,0.00,,,0.00,Wunderground v.1.15,2013-04-30 00:45:00,
2013-04-29 20:55:00,56.3,38.9,30.19,WSW,238,0.0,0.0,52,0.00,,,0.00,Wunderground v.1.15,2013-04-30 00:55:00,
2013-04-29 21:00:00,56.0,39.1,30.19,WSW,240,0.0,0.0,53,0.00,,,0.00,Wunderground v.1.15,2013-04-30 01:00:00,
2013-04-29 21:05:00,55.9,38.5,30.20,WSW,240,0.0,0.0,52,0.00,,,0.00,Wunderground v.1.15,2013-04-30 01:05:00,
2013-04-29 21:15:00,55.7,38.3,30.20,WSW,240,0.0,0.0,52,0.00,,,0.00,Wunderground v.1.15,2013-04-30 01:15:00,
2013-04-29 21:20:00,55.6,38.2,30.20,WSW,240,0.0,0.0,52,0.00,,,0.00,Wunderground v.1.15,2013-04-30 01:20:00,
2013-04-29 21:30:00,55.4,38.1,30.20,WSW,242,0.0,0.0,52,0.00,,,0.00,Wunderground v.1.15,2013-04-30 01:30:00,
2013-04-29 21:35:00,55.2,38.4,30.20,WSW,242,0.0,0.0,53,0.00,,,0.00,Wunderground v.1.15,2013-04-30 01:35:00,
2013-04-29 21:45:00,55.1,38.3,30.20,WSW,242,0.0,0.0,53,0.00,,,0.00,Wunderground v.1.15,2013-04-30 01:45:00,
2013-04-29 21:50:00,55.1,38.3,30.20,WSW,242,0.0,0.0,53,0.00,,,0.00,Wunderground v.1.15,2013-04-30 01:50:00,
2013-04-29 21:55:00,55.0,38.2,30.20,WSW,242,0.0,0.0,53,0.00,,,0.00,Wunderground v.1.15,2013-04-30 01:55:00,
2013-04-29 22:05:00,55.1,38.3,30.20,WSW,243,0.0,0.0,53,0.00,,,0.00,Wunderground v.1.15,2013-04-30 02:05:00,
2013-04-29 22:10:00,55.1,38.3,30.20,WSW,243,0.0,0.0,53,0.00,,,0.00,Wunderground v.1.15,2013-04-30 02:10:00,
2013-04-29 22:15:00,55.0,39.1,30.20,WSW,244,0.0,0.0,55,0.00,,,0.00,Wunderground v.1.15,2013-04-30 02:15:00,
2013-04-29 22:25:00,54.8,38.5,30.20,WSW,244,0.0,0.0,54,0.00,,,0.00,Wunderground v.1.15,2013-04-30 02:25:00,
2013-04-29 22:35:00,54.8,38.5,30.21,WSW,244,0.0,0.0,54,0.00,,,0.00,Wunderground v.1.15,2013-04-30 02:35:00,
2013-04-29 22:40:00,54.7,38.4,30.21,WSW,244,0.0,0.0,54,0.00,,,0.00,Wunderground v.1.15,2013-04-30 02:40:00,
2013-04-29 22:45:00,54.6,38.3,30.21,WSW,244,0.0,0.0,54,0.00,,,0.00,Wunderground v.1.15,2013-04-30 02:45:00,
2013-04-29 22:55:00,54.5,38.7,30.21,WSW,244,0.0,0.0,55,0.00,,,0.00,Wunderground v.1.15,2013-04-30 02:55:00,
2013-04-29 23:00:00,54.5,38.2,30.21,WSW,244,0.0,0.0,54,0.00,,,0.00,Wunderground v.1.15,2013-04-30 03:00:00,
2013-04-29 23:05:00,54.5,38.7,30.22,WSW,244,0.0,0.0,55,0.00,,,0.00,Wunderground v.1.15,2013-04-30 03:05:00,
2013-04-29 23:15:00,54.4,38.1,30.21,WSW,244,0.0,0.0,54,0.00,,,0.00,Wunderground v.1.15,2013-04-30 03:15:00,
2013-04-29 23:20:00,54.4,38.1,30.21,WSW,244,0.0,0.0,54,0.00,,,0.00,Wunderground v.1.15,2013-04-30 03:20:00,
2013-04-29 23:25:00,54.4,38.1,30.21,WSW,244,0.0,0.0,54,0.00,,,0.00,Wunderground v.1.15,2013-04-30 03:25:00,
2013-04-29 23:35:00,54.4,38.1,30.21,WSW,244,0.0,0.0,54,0.00,,,0.00,Wunderground v.1.15,2013-04-30 03:35:00,
2013-04-29 23:45:00,54.4,38.1,30.22,WSW,244,0.0,0.0,54,0.00,,,0.00,Wunderground v.1.15,2013-04-30 03:45:00,
2013-04-29 23:50:00,54.4,37.6,30.22,WSW,244,0.0,0.0,53,0.00,,,0.00,Wunderground v.1.15,2013-04-30 03:50:00,